Location: Greenwich
(51.4790°N, 0.0090°E)
Time: 00:19:06
(UTC+01:00)

Vanguard 2 - All Passes

Search period start: 17 April 2024 00:00
Search period end: 27 April 2024 00:00
Orbit: 552 x 2917 km, 32.9° (Epoch: 16 April)

Date Brightness Start Highest point End Pass type
(mag) Time Alt. Az. Time Alt. Az. Time Alt. Az.
17 Apr - 01:27:54 10° SSE 01:36:01 16° SE 01:44:27 10° ESE visible
17 Apr - 03:30:54 10° SSW 03:44:43 31° SSE 03:58:08 10° ESE visible
17 Apr - 05:39:12 10° WSW 05:54:32 38° S 06:07:32 10° ESE daylight
17 Apr - 07:50:16 10° WSW 08:03:53 31° SSW 08:14:28 10° SSE daylight
17 Apr - 10:05:07 10° WSW 10:11:27 14° SW 10:16:53 10° SSW daylight
18 Apr - 01:39:55 10° S 01:49:57 20° SE 02:00:35 10° ESE visible
18 Apr - 03:44:38 10° SW 03:58:57 34° SSE 04:12:54 10° ESE visible
18 Apr - 05:53:31 10° WSW 06:08:52 38° S 06:21:55 10° SE daylight
18 Apr - 08:05:03 10° WSW 08:18:02 28° SSW 08:28:18 10° SSE daylight
18 Apr - 10:22:58 10° WSW 10:25:16 11° SW 10:27:28 10° SW daylight
19 Apr - 01:52:41 10° S 02:03:56 24° SE 02:16:05 10° ESE visible
19 Apr - 03:58:34 10° SW 04:13:13 37° SSE 04:27:31 10° ESE visible
19 Apr - 06:07:57 10° WSW 06:23:10 38° S 06:36:10 10° SE daylight
19 Apr - 08:20:00 10° WSW 08:32:05 25° SSW 08:41:53 10° SSE daylight
20 Apr - 00:08:47 10° SE 00:10:10 10° SE 00:11:34 10° SE visible
20 Apr - 02:05:54 10° SSW 02:17:58 27° SSE 02:31:11 10° ESE visible
20 Apr - 04:12:39 10° SW 04:27:30 39° S 04:42:02 10° ESE visible
20 Apr - 06:22:27 10° WSW 06:37:25 36° SSW 06:50:18 10° SE daylight
20 Apr - 08:35:10 10° WSW 08:46:03 21° SW 08:55:07 10° S daylight
21 Apr - 00:17:25 10° SSE 00:23:55 14° SE 00:31:04 10° ESE visible
21 Apr - 02:19:25 10° SSW 02:32:03 31° SSE 02:46:04 10° ESE visible
21 Apr - 04:26:51 10° WSW 04:41:47 40° S 04:56:27 10° ESE visible
21 Apr - 06:37:03 10° WSW 06:51:37 34° SSW 07:04:15 10° SE daylight
21 Apr - 08:50:46 10° WSW 08:59:55 17° SW 09:07:50 10° S daylight
22 Apr - 00:29:20 10° S 00:37:44 18° SE 00:47:21 10° ESE visible
22 Apr - 02:33:10 10° SW 02:46:11 34° SSE 03:00:47 10° ESE visible
22 Apr - 04:41:09 10° WSW 04:56:04 40° S 05:10:46 10° ESE visible
22 Apr - 06:51:46 10° WSW 07:05:44 31° SSW 07:17:59 10° SSE daylight
22 Apr - 09:07:10 10° WSW 09:13:42 14° SW 09:19:38 10° SSW daylight
23 Apr - 00:42:03 10° S 00:51:36 22° SE 01:02:52 10° ESE visible
23 Apr - 02:47:06 10° SW 03:00:21 36° SSE 03:15:21 10° ESE visible
23 Apr - 04:55:32 10° WSW 05:10:19 39° S 05:24:56 10° SE visible
23 Apr - 07:06:37 10° WSW 07:19:46 27° SSW 07:31:30 10° SSE daylight
24 Apr - 00:55:15 10° SSW 01:05:30 26° SSE 01:17:58 10° ESE visible
24 Apr - 03:01:10 10° SW 03:14:33 38° S 03:29:48 10° ESE visible
24 Apr - 05:10:01 10° WSW 05:24:32 37° SSW 05:38:58 10° SE visible
24 Apr - 07:21:41 10° WSW 07:33:44 23° SW 07:44:39 10° S daylight
24 Apr - 23:08:38 10° SSE 23:12:06 11° SE 23:15:52 10° ESE visible
25 Apr - 01:08:46 10° SSW 01:19:30 29° SSE 01:32:48 10° ESE visible
25 Apr - 03:15:20 10° SW 03:28:47 39° S 03:44:08 10° ESE visible
25 Apr - 05:24:33 10° WSW 05:38:42 34° SSW 05:52:49 10° SE daylight
25 Apr - 07:37:07 10° WSW 07:47:36 19° SW 07:57:19 10° S daylight
25 Apr - 23:19:46 10° SSE 23:25:49 15° SE 23:32:56 10° ESE visible
26 Apr - 01:22:31 10° SSW 01:33:32 32° SSE 01:47:28 10° ESE visible
26 Apr - 03:29:37 10° WSW 03:43:01 39° S 03:58:22 10° ESE visible
26 Apr - 05:39:13 10° WSW 05:52:50 31° SSW 06:06:28 10° SSE daylight
26 Apr - 07:53:11 10° WSW 08:01:25 15° SW 08:09:13 10° SSW daylight
26 Apr - 23:32:17 10° S 23:39:36 19° SE 23:48:38 10° ESE visible
